FENGYUN 1C DEB, 32134

Orbit data source: Space-Track

FENGYUN 1C DEB, 32134 is space debris in SSO originally from a launch on Mon, 10 May 1999 UTC launched from the Taiyaun Space Center, China (TSC). Fengyun 1C debris stems from the Chinese weather satellite Fengyun-1C, which was intentionally destroyed by a Chinese anti-satellite missile in 2007. This event dramatically increased the amount of space debris, with thousands of trackable fragments posing hazards to satellites and human spaceflight. The Fengyun 1C debris cloud has become a focal point in discussions about space sustainability and the need for international regulations to prevent the creation of new debris.

Loading next visibility...
Identifier
32134, 1999-025CSC
Orbit
SSO
Country
Flag of CNCN / PRC
Related business
Manufacturer
Unknown
Mission
Spacecraft
Bus & Motor
Unknown
Mass
Unknown
Launch date (UTC)
1999-05-10 (27 years ago)
Launch vehicle
Unknown
Launch site
Taiyaun Space Center, China (TSC)
Object type
Payload
Rocket body
Debris
Shape & HBR
Unknown shape, 0.1 m
Radar Cross Section
Small (<0.1 m²)

Expand to show TLE details & history
Last TLE update: 1 day ago

TLE from 1 day ago
0 FENGYUN 1C DEB
1 32134U 99025CSC 26254.47214891  .00000676  00000-0  23206-3 0  9998
2 32134  98.6008 256.1946 0256880 191.3171 324.8773 14.22481958990232
Epoch: 2026-09-11T11:19Z
TLE epoch observation values (Epoch: 2026-09-11T11:19:53.665Z)
Latitude
25.26901°
Longitude
-80.20211°
Altitude
670.456 km
Speed
7.602 km/s
True Right ascension
05h 21m 03s
True Declination
25° 08' 06"
Sunlit
Object was in daylight at epoch
Visualization orbit readout
Latitude
Unknown
Longitude
Unknown
Altitude
Unknown
Speed
Unknown
Apparent Right ascension
Unknown
Apparent Declination
Unknown
Sunlit
N/A
Visualization observer readout
Local Sidereal Time
08:48:01
Azimuth
Unknown
Elevation
Unknown
Doppler factor
Unknown
Orbital elements
Apogee altitude
998.873 km
Perigee altitude
629.364 km
Semi-major axis
7,192.255 km
Eccentricity
0.02569
Inclination
98.6008°
RAAN
256.1946°
Arg. of periapsis
191.3171°
True anomaly
323.13839°
Mean anomaly
324.8773°
Eccentric anomaly
324.01245°
Mean motion
3.55832 °/min
Orbital period
101.17 mins
BSTAR
0.00023206
Loading maneuver chart data...
Computing Atmospheric mass density...

Documentation

Showing up to 5 results
|